User: anonymous
Location: Steinbach
(49.5170°N, 96.6830°W)
Time: 05:09:23
(UTC-05:00)
Language:

NOSS 3-4 (A) - Orbit

View from above orbital plane
View from above orbital plane
View from above satellite
View from above satellite

Ground track
Ground track

The orbit data is extracted from the following two-line orbital elements,

1 31701U 07027A   14095.74074046 0.00000000  00000-0  00000-0 0    02
2 31701  63.4030 180.8635 0101000  41.3732 318.6268 13.40636971    07
Epoch (UTC): 05 April 2014 17:46:39
Eccentricity: 0.0101000
inclination: 63.4030°
perigee height: 1031 km
apogee height: 1182 km
right ascension of ascending node: 180.8635°
argument of perigee: 41.3732°
revolutions per day: 13.40636971
mean anomaly at epoch: 318.6268°
orbit number at epoch: 0

The dashed part of the orbit path shows where the satellite is in the earth's shadow,  

DLR